Location: Arlington
(31.4185°N, 90.5568°W)
Time: 10:50:44
(UTC+00:00)

Nauka - Pass Details

Date: 04 October 2021
Orbit: 417 x 423 km, 51.6° (Epoch: 17 October)

Event Time Altitude Azimuth Distance (km) Brightness Sun altitude
Rises 00:31:54 0° 336° (NNW) 2,360 ? -11.0°
Reaches altitude 10° 00:35:46 10° 21° (NNE) 1,495 ? -11.8°
Maximum altitude 00:36:18 10° 30° (NNE) 1,478 ? -11.9°
Drops below altitude 10° 00:36:51 10° 40° (NE) 1,495 ? -12.0°
Enters shadow 00:37:02 10° 43° (NE) 1,508 ? -12.1°
